Weather reports worldwide

Advertisment
Reims-Prunay, France (7072): temperature & dewpoint: 20.10.2020 10:00:00 - 26.10.2020 10:00:00 (CET)Reims-Prunay, France (7072): temperature 5cm: 20.10.2020 10:00:00 - 26.10.2020 10:00:00 (CET)Reims-Prunay, France (7072): temperature -20cm & temperature -100cm: 20.10.2020 10:00:00 - 26.10.2020 10:00:00 (CET)Reims-Prunay, France (7072): wind speed & gusts: 20.10.2020 10:00:00 - 26.10.2020 10:00:00 (CET)Reims-Prunay, France (7072): wind direction: 20.10.2020 10:00:00 - 26.10.2020 10:00:00 (CET)Reims-Prunay, France (7072): reduced air pressure: 20.10.2020 10:00:00 - 26.10.2020 10:00:00 (CET)Reims-Prunay, France (7072): visibility: 20.10.2020 10:00:00 - 26.10.2020 10:00:00 (CET)Reims-Prunay, France (7072): sunshine duration: 20.10.2020 10:00:00 - 26.10.2020 10:00:00 (CET)Reims-Prunay, France (7072): precipitation: 20.10.2020 10:00:00 - 26.10.2020 10:00:00 (CET)
Date & Time tt [°C] td [°C] tt 5cm [°C] tt -20cm [°C] tt -100cm [°C] ff [km/h] ff [kn] fx [km/h] fx [kn] dd ppp [hPa] vv [km] sd [min] rr [mm]
26.10.2020 10:00:00 10,6 7,1 12,1 12,3 14,4 20 11 31 17 SW 1005,2 20 60 0,0
26.10.2020 09:00:00 9,4 6,8 7,6 12,4 14,4 14 8 26 14 SW 1005,7 20 13 0,0
26.10.2020 08:00:00 8,7 6,7 7,9 12,5 14,4 13 7 33 18 SSW 1004,8 20 0 0,0
26.10.2020 07:00:00 8,8 6,9 7,6 12,6 14,4 15 8 23 12 S 1004,1 20 0 0,0
26.10.2020 06:00:00 9,3 7,4 8,2 12,7 14,4 16 9 26 14 SSW 1003,6 20 0 0,0
26.10.2020 05:00:00 9,0 7,6 7,0 12,7 14,4 6 3 16 9 SW 1003,4 20 0 0,0
26.10.2020 04:00:00 9,0 7,3 7,5 12,8 14,4 7 4 21 11 SW 1003,2 20 0 0,0
26.10.2020 03:00:00 9,7 7,6 8,4 12,9 14,4 12 7 19 10 SSW 1003,4 20 0 0,0
26.10.2020 02:00:00 9,9 8,0 8,7 13,0 14,4 14 8 24 13 SW 1002,9 20 0 0,0
26.10.2020 01:00:00 10,4 8,5 9,1 13,0 14,4 12 6 22 12 WSW 1002,4 20 0 0,0
26.10.2020 00:00:00 10,5 8,9 9,5 13,1 14,4 10 5 16 8 SW 1003,1 20 0 0,0
25.10.2020 23:00:00 11,0 9,4 10,1 13,1 14,4 13 7 21 11 SW 1003,3 20 0 0,4
25.10.2020 22:00:00 11,1 9,5 10,3 13,2 14,4 14 8 29 16 SSW 1003,2 20 0 0,6
25.10.2020 21:00:00 11,5 9,7 10,5 13,2 14,4 15 8 24 13 S 1003,4 20 0 0,0
25.10.2020 20:00:00 11,5 9,7 10,3 13,3 14,4 14 8 27 15 S 1003,4 20 0 0,0
25.10.2020 19:00:00 11,5 9,4 10,3 13,3 14,4 18 10 28 15 SSW 1004,1 20 0 0,0
25.10.2020 18:00:00 11,5 9,6 10,5 13,3 14,4 11 6 25 13 SSW 1004,1 20 0 0,0
25.10.2020 17:00:00 11,5 9,7 10,7 13,4 14,4 16 9 27 15 SSW 1004,1 20 0 0,2
25.10.2020 16:00:00 11,8 9,9 10,9 13,3 14,4 15 8 30 16 SSW 1004,1 20 0 0,0
25.10.2020 15:00:00 11,9 9,6 10,8 13,4 14,4 16 8 36 19 SSW 1003,5 20 0 0,0
25.10.2020 14:00:00 12,2 9,8 11,1 13,3 14,4 11 6 25 14 S 1003,9 20 0 0,2
25.10.2020 13:00:00 11,9 9,6 11,2 13,3 14,4 14 7 22 12 S 1004,2 20 0 0,0
25.10.2020 12:00:00 12,0 10,1 11,3 13,4 14,4 14 7 29 15 SSE 1004,1 20 0 0,2
25.10.2020 11:00:00 12,0 10,7 11,2 13,4 14,4 16 9 39 21 SSW 1005,1 15 0 1,2
25.10.2020 10:00:00 12,2 10,3 11,2 13,4 14,4 23 13 37 20 SSW 1004,9 13 0 0,0
25.10.2020 09:00:00 12,0 10,1 10,8 13,5 14,4 10 5 26 14 SSW 1004,8 20 0 0,8
25.10.2020 08:00:00 12,0 9,9 10,7 13,5 14,4 16 9 37 20 SSW 1005,0 15 0 1,2
25.10.2020 07:00:00 12,4 9,4 10,8 13,6 14,4 17 9 35 19 S 1005,3 20 0 0,2
25.10.2020 06:00:00 12,4 9,2 10,9 13,6 14,4 14 7 28 15 S 1005,3 20 0 0,0
25.10.2020 05:00:00 12,7 9,1 11,9 13,7 14,4 13 7 29 16 SSE 1005,7 20 0 0,0
25.10.2020 04:00:00 12,8 9,4 11,6 13,7 14,4 19 10 35 19 S 1005,8 20 0 0,0
25.10.2020 03:00:00 12,7 10,2 11,5 13,7 14,3 23 13 38 21 SSE 1006,7 20 0 0,0
25.10.2020 02:00:00 12,8 10,3 11,5 13,8 14,4 27 15 43 23 S 1007,5 13 0 0,2
25.10.2020 01:00:00 - - - - - - - - - - - - - -
25.10.2020 00:00:00 14,1 10,7 13,3 13,9 14,4 28 15 50 27 S 1008,8 20 0 0,0
24.10.2020 23:00:00 14,1 10,9 13,2 13,9 14,4 25 14 47 25 S 1009,9 20 0 0,0
24.10.2020 22:00:00 13,9 11,2 13,3 13,9 14,3 23 12 45 25 S 1010,2 20 0 0,0
24.10.2020 21:00:00 14,3 11,4 13,7 13,9 14,3 27 15 44 24 S 1010,7 20 0 0,0
24.10.2020 20:00:00 14,6 11,9 14,3 13,9 14,4 19 10 42 23 S 1011,4 20 0 0,0
24.10.2020 19:00:00 14,7 12,4 14,3 13,9 14,4 23 13 40 22 S 1011,9 20 0 0,0
24.10.2020 18:00:00 14,7 12,6 14,0 13,8 14,3 19 10 38 21 S 1012,3 20 0 0,0
24.10.2020 17:00:00 14,8 12,5 14,1 13,8 14,4 25 13 41 22 S 1012,8 20 0 0,0
24.10.2020 16:00:00 14,4 12,8 13,7 13,7 14,3 17 9 37 20 S 1013,2 20 0 0,0
24.10.2020 15:00:00 14,3 12,7 14,0 13,6 14,3 22 12 44 24 SSW 1013,8 10 0 0,0
24.10.2020 14:00:00 15,3 12,1 15,9 13,5 14,3 25 14 41 22 SSW 1014,1 16 3 0,0
24.10.2020 13:00:00 14,9 12,0 14,9 13,4 14,3 20 11 39 21 SSW 1014,7 20 0 0,0
24.10.2020 12:00:00 14,1 11,8 14,0 13,4 14,3 19 11 33 18 SSW 1015,3 20 0 0,0
24.10.2020 11:00:00 13,4 11,8 13,3 13,4 14,3 18 10 35 19 S 1015,4 14 0 0,0
24.10.2020 10:00:00 12,9 11,0 12,7 13,5 14,3 19 11 36 20 S 1015,8 20 0 0,0
24.10.2020 09:00:00 12,4 10,5 11,9 13,5 14,3 17 9 31 17 S 1015,8 20 23 0,0
24.10.2020 08:00:00 11,8 9,7 9,1 13,6 14,3 17 9 27 14 SSW 1015,8 20 17 0,0
24.10.2020 07:00:00 10,3 8,7 8,4 13,7 14,3 9 5 16 9 SSE 1015,6 20 0 0,0
24.10.2020 06:00:00 11,0 8,7 9,7 13,8 14,3 6 4 18 10 SSE 1015,9 20 0 0,0
24.10.2020 05:00:00 11,4 9,1 10,2 13,9 14,3 12 7 20 11 SW 1016,0 19 0 0,0
24.10.2020 04:00:00 12,0 10,1 11,0 14,0 14,3 11 6 21 12 SW 1015,8 20 0 0,0
24.10.2020 03:00:00 12,4 10,5 11,0 14,1 14,3 12 6 20 11 SW 1016,0 20 0 0,0
24.10.2020 02:00:00 12,9 10,8 11,6 14,2 14,3 13 7 23 13 SSW 1015,5 20 0 0,0
24.10.2020 01:00:00 13,4 11,8 11,6 14,3 14,3 10 5 20 11 WSW 1015,6 20 0 0,0
24.10.2020 00:00:00 12,7 11,3 8,1 14,5 14,3 10 5 19 11 SW 1015,6 20 0 0,0
23.10.2020 23:00:00 12,9 11,0 9,1 14,6 14,3 4 2 11 6 SSW 1015,4 20 0 0,0
23.10.2020 22:00:00 12,5 10,4 9,2 14,7 14,3 4 2 16 9 SW 1015,1 20 0 0,0
23.10.2020 21:00:00 12,9 10,8 9,0 14,9 14,3 9 5 14 8 SW 1014,7 20 0 0,0
23.10.2020 20:00:00 11,7 10,3 9,3 15,0 14,3 4 2 13 7 ESE 1013,9 14 0 0,0
23.10.2020 19:00:00 13,0 11,7 9,1 15,0 14,3 7 4 10 6 SW 1013,5 19 0 0,0
23.10.2020 18:00:00 14,3 12,0 12,7 14,9 14,3 10 5 17 9 SW 1013,0 20 12 0,0
23.10.2020 17:00:00 16,5 13,0 16,0 14,8 14,3 11 6 19 10 WSW 1012,5 20 2 0,0
23.10.2020 16:00:00 17,6 13,3 17,3 14,7 14,3 9 5 23 12 W 1012,2 20 18 0,0
23.10.2020 15:00:00 18,7 13,1 18,1 14,6 14,3 17 9 26 14 WSW 1011,4 20 40 0,0
23.10.2020 14:00:00 18,5 13,8 17,0 14,4 14,3 16 9 28 15 WSW 1011,4 20 26 0,0
23.10.2020 13:00:00 16,3 13,6 16,3 14,3 14,3 13 7 26 14 WSW 1012,0 20 0 0,0
23.10.2020 12:00:00 16,5 13,4 17,3 14,3 14,3 11 6 17 9 SSW 1012,2 20 0 0,0
23.10.2020 11:00:00 16,3 14,0 16,2 14,2 14,2 11 6 18 10 SW 1012,0 20 3 0,0
23.10.2020 10:00:00 14,8 14,0 14,4 14,2 14,3 7 4 13 7 SSE 1012,2 14 2 0,0
23.10.2020 09:00:00 14,5 13,5 13,7 14,3 14,3 8 4 14 7 S 1012,0 20 0 0,0
23.10.2020 08:00:00 14,3 12,8 13,4 14,3 14,2 6 3 23 12 S 1011,8 20 0 0,0
23.10.2020 07:00:00 13,7 12,9 13,2 14,3 14,3 9 5 21 11 SE 1011,6 0,6 0 0,2
23.10.2020 06:00:00 13,9 13,3 13,1 14,4 14,3 9 5 11 6 E 1011,6 0,1 0 0,0
23.10.2020 05:00:00 14,1 13,1 13,2 14,4 14,3 2 1 13 7 SSW 1012,2 11 0 0,0
23.10.2020 04:00:00 14,8 13,7 13,9 14,4 14,3 10 5 16 9 WSW 1012,4 20 0 0,0
23.10.2020 03:00:00 14,6 13,5 13,6 14,5 14,3 8 4 26 14 NW 1012,6 20 0 0,8
23.10.2020 02:00:00 14,6 13,3 13,7 14,5 14,3 4 2 21 11 E 1012,7 16 0 0,4
23.10.2020 01:00:00 15,2 13,2 14,2 14,5 14,2 4 2 25 14 S 1013,3 20 0 0,0
23.10.2020 00:00:00 14,9 13,4 13,6 14,7 14,3 12 6 18 10 S 1013,3 20 0 0,0
22.10.2020 23:00:00 14,6 13,1 12,5 14,7 14,3 12 6 22 12 ESE 1013,4 20 0 0,0
22.10.2020 22:00:00 15,0 12,9 13,4 14,7 14,2 9 5 14 8 SSE 1013,3 20 0 0,0
22.10.2020 21:00:00 15,4 14,1 13,8 14,8 14,2 2 1 11 6 NW 1013,3 20 0 0,0
22.10.2020 20:00:00 16,1 14,5 14,7 14,8 14,3 7 4 11 6 S 1013,2 20 0 0,0
22.10.2020 19:00:00 16,7 14,0 15,1 14,7 14,2 5 3 15 8 SW 1013,2 20 0 0,0
22.10.2020 18:00:00 17,0 14,3 15,5 14,7 14,3 12 6 24 13 SSW 1013,0 20 0 0,4
22.10.2020 17:00:00 18,0 14,9 16,6 14,5 14,2 16 9 27 15 S 1012,7 20 0 0,0
22.10.2020 16:00:00 19,4 14,4 19,1 14,3 14,2 12 6 23 13 SSW 1012,5 20 3 0,0
22.10.2020 15:00:00 20,2 15,0 20,9 14,1 14,3 13 7 28 15 S 1011,9 20 23 0,0
22.10.2020 14:00:00 21,3 14,7 22,7 13,9 14,3 16 8 27 15 S 1012,1 18 49 0,0
22.10.2020 13:00:00 20,8 14,2 21,5 13,7 14,3 15 8 29 16 SW 1012,5 20 51 0,0
22.10.2020 12:00:00 19,3 13,7 22,1 13,5 14,3 19 10 30 16 SSW 1013,2 20 60 0,0
22.10.2020 11:00:00 18,6 13,9 20,6 13,4 14,3 19 10 28 15 S 1013,0 20 60 0,0
22.10.2020 10:00:00 17,1 13,0 16,5 13,4 14,3 14 7 29 16 S 1013,4 20 60 0,0
22.10.2020 09:00:00 16,1 13,0 13,8 13,4 14,3 18 10 33 18 S 1013,1 20 52 0,0
22.10.2020 08:00:00 14,2 12,9 12,5 13,4 14,3 2 1 13 7 E 1012,9 20 0 0,0
22.10.2020 07:00:00 14,1 13,1 12,2 13,5 14,3 6 3 11 6 SE 1012,4 20 0 0,0
22.10.2020 06:00:00 14,3 13,3 12,6 13,5 14,3 5 3 14 8 E 1012,3 20 0 0,0
22.10.2020 05:00:00 14,3 13,5 13,3 13,5 14,3 9 5 15 8 SE 1011,8 20 0 0,2
22.10.2020 04:00:00 14,9 13,3 13,8 13,5 14,3 9 5 21 11 SSE 1011,5 20 0 0,6
22.10.2020 03:00:00 15,2 13,4 13,9 13,4 14,3 10 5 22 12 S 1012,0 20 0 0,2
22.10.2020 02:00:00 15,6 12,9 14,6 13,5 14,3 10 5 19 10 SSW 1011,6 20 0 0,0
22.10.2020 01:00:00 15,5 13,2 14,4 13,5 14,3 8 5 22 12 SSW 1011,2 20 0 0,0
22.10.2020 00:00:00 16,2 13,5 14,1 13,5 14,3 14 7 26 14 SSW 1010,9 20 0 0,0
21.10.2020 23:00:00 15,7 13,0 14,1 13,6 14,3 9 5 15 8 S 1010,5 20 0 0,0
21.10.2020 22:00:00 16,2 13,1 13,2 13,6 14,3 9 5 14 8 S 1010,2 20 0 0,0
21.10.2020 21:00:00 16,6 12,9 13,7 13,6 14,3 4 2 11 6 S 1009,6 20 0 0,0
21.10.2020 20:00:00 16,7 13,2 14,7 13,6 14,3 6 3 16 8 SSE 1008,8 20 0 0,0
21.10.2020 19:00:00 17,1 13,2 14,7 13,5 14,3 8 4 21 12 SSW 1008,1 20 0 0,0
21.10.2020 18:00:00 18,2 13,5 16,9 13,4 14,3 16 8 25 13 S 1006,8 20 10 0,0
21.10.2020 17:00:00 19,7 13,4 19,4 13,3 14,3 14 8 52 28 SSW 1005,9 20 42 0,0
21.10.2020 16:00:00 20,1 12,6 19,3 13,1 14,3 33 18 63 34 SW 1005,5 20 35 0,0
21.10.2020 15:00:00 20,0 13,2 19,7 12,9 14,3 29 16 55 30 SW 1004,6 20 42 0,0
21.10.2020 14:00:00 20,9 12,8 20,7 12,7 14,3 35 19 64 35 SW 1004,3 20 18 0,0
21.10.2020 13:00:00 21,7 12,8 21,2 12,5 14,3 26 14 55 30 SSW 1003,8 20 56 0,0
21.10.2020 12:00:00 19,8 11,8 17,8 12,4 14,3 30 16 56 31 S 1003,6 20 53 0,0
21.10.2020 11:00:00 17,5 11,1 16,2 12,4 14,3 34 18 57 31 S 1003,2 20 0 0,0
21.10.2020 10:00:00 16,1 10,8 13,5 12,3 14,3 29 15 48 26 S 1002,9 20 0 0,0
21.10.2020 09:00:00 13,9 10,5 11,6 12,4 14,3 24 13 37 20 SSE 1002,9 20 0 0,0
21.10.2020 08:00:00 12,6 10,3 11,1 12,4 14,4 21 12 29 16 SE 1003,0 20 0 0,0
21.10.2020 07:00:00 12,0 10,4 11,1 12,4 14,3 16 9 25 13 SE 1003,2 20 0 0,4
21.10.2020 06:00:00 12,3 10,2 11,2 12,4 14,4 17 9 29 16 SE 1003,8 20 0 0,0
21.10.2020 05:00:00 12,0 10,4 11,2 12,4 14,4 16 9 26 14 SE 1003,8 20 0 0,0
21.10.2020 04:00:00 12,2 10,4 11,1 12,4 14,3 17 9 24 13 ESE 1004,2 20 0 0,6
21.10.2020 03:00:00 12,0 10,4 11,1 12,4 14,4 18 10 24 13 E 1004,9 20 0 0,4
21.10.2020 02:00:00 12,2 10,9 11,5 12,4 14,4 11 6 18 10 ESE 1006,5 15 0 0,2
21.10.2020 01:00:00 12,5 11,1 11,7 12,3 14,4 12 7 20 11 ESE 1006,8 18 0 0,2
21.10.2020 00:00:00 12,8 11,4 12,0 12,3 14,4 13 7 19 10 SE 1006,9 20 0 0,2
20.10.2020 23:00:00 12,9 11,6 12,2 12,3 14,4 12 7 16 9 ESE 1007,6 18 0 0,4
20.10.2020 22:00:00 13,2 12,1 12,6 12,3 14,4 10 5 16 8 ESE 1007,9 13 0 0,4
20.10.2020 21:00:00 13,3 12,2 12,6 12,2 14,4 9 5 14 7 E 1008,1 15 0 0,0
20.10.2020 20:00:00 13,4 12,3 12,7 12,1 14,4 10 6 15 8 SE 1008,7 19 0 0,2
20.10.2020 19:00:00 13,4 12,5 12,8 12,0 14,4 10 6 19 10 SSE 1009,5 17 0 0,0
20.10.2020 18:00:00 13,5 12,4 12,8 11,9 14,4 13 7 27 15 SSE 1009,7 20 0 0,0
20.10.2020 17:00:00 14,0 12,4 13,1 11,9 14,4 18 10 31 17 S 1010,2 13 0 0,4
20.10.2020 16:00:00 13,7 12,4 13,0 11,8 14,4 12 6 19 11 SSE 1010,5 19 0 0,6
20.10.2020 15:00:00 14,0 12,2 12,9 11,7 14,5 13 7 29 15 S 1010,9 17 0 0,8
20.10.2020 14:00:00 13,9 11,8 12,8 11,6 14,4 18 10 30 16 S 1011,2 10 0 0,6
20.10.2020 13:00:00 14,2 11,9 12,8 11,5 14,4 18 10 43 23 S 1011,2 19 0 0,4
20.10.2020 12:00:00 14,5 10,5 13,0 11,4 14,4 16 9 29 16 S 1011,4 20 0 0,0
20.10.2020 11:00:00 12,9 10,1 11,4 11,4 14,5 13 7 24 13 SE 1011,0 20 0 0,0
20.10.2020 10:00:00 11,4 9,3 10,2 11,4 14,4 17 9 30 16 E 1011,1 20 0 0,0

tt = temperature
td = dewpoint
tt 5cm = temperature 5cm
tt -20cm = temperature -20cm
tt -100cm = temperature -100cm
ff = wind speed
fx = gusts
dd = wind direction
ppp = reduced air pressure
vv = visibility
sd = sunshine duration
rr = precipitation

Next stations